Content
SEND FEEDBACK

Daily
Averages
Monthly
Summary
United States of America

KOHLER, WISCONSIN


Home > North America > United States > Wisconsin
Elevation: 633 feet     Latitude: 43 45N     Longitude: 087 43W

WEATHER
 
SELECT A DAY
Number of Records: 202,297;   Date Range: 8/15/96 - 12/26/14
 
SHARE

PRINT THIS DATA

[ ← Previous Day ]
WEATHER ALMANAC - JULY 22, 2014
[ Next Day → ]
[ °C ]   °F
Weather ElementAverageHighLow
Temperature79 °F90 °F (4:53 pm)68 °F (1:53 am)
Dewpoint68.9 °F75 °F (2:53 pm)59 °F (11:53 pm)
Humidity71.9 %90 % (5:53 am)58 % (7:53 pm)
Barometer29.93 in30.05 in (11:53 pm)29.85 in (1:53 pm)
Wind Speed12.9 mph17.3 mph (9:53 am)
Wind Gust29.9 mph (9:53 pm)
Weather ElementAverage
Visibility9 mi
Wind DirectionSW (219.6 °)

Weather ElementTotal
Precipitation0.04 in
Cooling Degree Days14 (Base 65)
Growing Degree Days29 (Base 50)
Averaged from 23 records on July 22, 2014
WEATHER CONDITIONS BREAKOUT
WIND DIRECTION BREAKOUT
WEATHER BY HOUR - JULY 22, 2014
[ °C ]   °F
Local TimeTemperatureDewpointHumidityBarometerVisibilityWind DirectionWind SpeedGust SpeedPrecipitationEventsConditions
1:53 AM68.0 °F64.0 °F87 %30.00 in8.0 miSouth (170°)5.8 mphClear
2:53 AM71.1 °F66.0 °F84 %29.98 in10.0 miSouth (190°)13.8 mphClear
3:53 AM70.0 °F66.0 °F87 %29.97 in9.0 miSSW (200°)9.2 mphClear
4:53 AM70.0 °F66.0 °F87 %29.97 in9.0 miSouth (190°)9.2 mphScattered Clouds
5:53 AM69.1 °F66.0 °F90 %29.96 in6.0 miSouth (180°)9.2 mphClear
6:53 AM72.0 °F66.0 °F81 %29.95 in7.0 miSouth (190°)13.8 mphPartly Cloudy
7:53 AM73.9 °F66.9 °F79 %29.95 in9.0 miSouth (190°)11.5 mphClear
9:53 AM81.0 °F68.0 °F65 %29.91 in10.0 miSW (220°)17.3 mph27.6 mphClear
10:53 AM82.0 °F70.0 °F67 %29.91 in10.0 miSW (220°)17.3 mph24.2 mphOvercast
12:01 PM84.9 °F72.0 °F65 %29.91 in10.0 miWSW (240°)17.3 mphMostly Cloudy
12:32 PM84.9 °F73.0 °F67 %29.89 in10.0 miSW (230°)17.3 mph21.9 mphMostly Cloudy
12:53 PM86.0 °F73.0 °F65 %29.87 in10.0 miSW (220°)17.3 mph21.9 mphScattered Clouds
1:53 PM87.1 °F73.9 °F65 %29.85 in10.0 miSW (220°)13.8 mphClear
2:53 PM86.0 °F75.0 °F70 %29.87 in10.0 miWest (270°)10.4 mphMostly Cloudy
3:53 PM88.0 °F73.9 °F63 %29.87 in10.0 miWest (280°)11.5 mphScattered Clouds
4:53 PM90.0 °F73.9 °F59 %29.87 in10.0 miWest (280°)11.5 mph17.3 mphClear
5:53 PM84.0 °F75.0 °F74 %29.88 in4.0 miWest (270°)15.0 mph21.9 mph0.02 inRain-ThunderstormRain
6:02 PM82.0 °F75.0 °F79 %29.89 in5.0 miWSW (250°)12.7 mph0.01 inRainLight Rain
6:53 PM86.0 °F70.0 °F59 %29.89 in10.0 miWNW (300°)9.2 mph19.6 mph0.01 inPartly Cloudy
7:53 PM82.9 °F66.9 °F58 %29.91 in10.0 miNNW (330°)10.4 mphClear
9:53 PM77.0 °F63.0 °F62 %29.98 in10.0 miNNW (340°)16.1 mph29.9 mphMostly Cloudy
10:53 PM73.9 °F63.0 °F68 %30.00 in10.0 miNorth (10°)15.0 mph23.0 mphOvercast
11:53 PM68.0 °F59.0 °F73 %30.05 in10.0 miENE (60°)11.5 mphMostly Cloudy
Hourly data recorded from KSBM, located miles away from Kohler, Wisconsin







STORIES FROM OUR PARTNERS